Location: Innsbruck
(47.2657°N, 11.3914°E)
Time: 10:43:21
(UTC+01:00)

First-Move - Visible Passes

Search period start: 01 December 2021 00:00
Search period end: 11 December 2021 00:00
Orbit: 575 x 664 km, 97.6° (Epoch: 30 November)

Date Brightness Start Highest point End Pass type
(mag) Time Alt. Az. Time Alt. Az. Time Alt. Az.
01 Dec ? 03:56:50 10° NE 03:57:18 12° NE 03:57:18 12° NE visible
01 Dec ? 05:32:39 10° N 05:34:26 22° NNW 05:34:26 22° NNW visible
02 Dec ? 04:13:47 10° NNE 04:14:32 14° NNE 04:14:32 14° NNE visible
02 Dec ? 05:50:11 10° N 05:51:40 18° NNW 05:51:40 18° NNW visible
03 Dec ? 04:30:53 10° NNE 04:31:47 16° NNE 04:31:47 16° NNE visible
03 Dec ? 06:07:51 10° NNW 06:08:55 14° NNW 06:08:55 14° NNW visible
03 Dec ? 17:06:35 10° SW 17:09:08 15° W 17:11:43 10° NW visible
04 Dec ? 04:48:04 10° NNE 04:49:01 16° NNE 04:49:01 16° NNE visible
04 Dec ? 06:25:46 10° NNW 06:26:11 11° NNW 06:26:11 11° NNW visible
04 Dec ? 17:26:05 10° W 17:26:37 10° W 17:27:08 10° WNW visible
05 Dec ? 05:05:21 10° N 05:06:17 16° N 05:06:17 16° N visible
06 Dec ? 05:22:43 10° N 05:23:33 15° N 05:23:33 15° N visible
07 Dec ? 05:40:11 10° N 05:40:49 13° N 05:40:49 13° N visible
08 Dec ? 05:57:45 10° NNW 05:58:06 12° NNW 05:58:06 12° NNW visible
08 Dec ? 16:56:00 10° SW 16:59:08 19° W 17:02:20 10° NW visible
09 Dec ? 17:14:29 10° WSW 17:16:34 13° W 17:18:42 10° WNW visible
10 Dec ? 04:55:27 10° NNE 04:55:31 10° NNE 04:55:31 10° NNE visible
